DUCHIFAT-1

Last updated on Thu Oct 30 2025 00:03:10 GMT+0000 (Coordinated Universal Time)

1 40021U 14033M 25302.35166120 .00043100 00000+0 12107-2 0 9994 2 40021 98.0870 329.6774 0007637 166.3262 193.8188 15.36380210620025
UTC large
Height (km)
Speed (km/s)
/
Latitude / Longitude
Inclination (degrees)
Orbital Period (minutes)
Azimuth
Elevation
Range (km)
Doppler Factor

Next 0 passes for location: London (51.5072 / 0.1276)

Sorry there are no passes over London.